Regional Weather Roundup
Issued by NWS

Home | Current Version | Previous Version | Text Only | Print | Product List | Glossary On
Versions: 1 2 3 4 5 6 7 8 9 10 11 12 13 14 15 16 17 18 19 20 21 22 23 24 25 26 27 28 29 30 31 32 33 34 35 36 37 38 39 40 41 42 43 44 45 46 47 48 49 50
000
ASUS43 KLOT 232307
RWRIL

ILLINOIS REGIONAL WEATHER ROUNDUP
NATIONAL WEATHER SERVICE CHICAGO/ROMEOVILLE IL
600 PM CDT THU MAR 23 2017

NOTE: "FAIR" INDICATES FEW OR NO CLOUDS BELOW 12,000 FEET WITH NO
SIGNIFICANT WEATHER AND/OR OBSTRUCTIONS TO VISIBILITY.

* THESE STATIONS ARE NOT UNDER NWS QUALITY CONTROL. THEY ALSO MAY NOT
  REPORT WEATHER SUCH AS PRECIPITATION OR FOG.

ILZ001-002-007-009-015-016-024-240000-
NORTHWEST ILLINOIS

CITY           SKY/WX    TMP DP  RH WIND       PRES   REMARKS
MOLINE         MOSUNNY   46  36  68 SE12      30.02S
STERLING*      CLOUDY    43  31  62 SE14      30.03F
SAVANNA*       CLOUDY    42  32  67 SE16      30.04F THUNDER
$$

ILZ003-004-008-010-011-017-018-240000-
NORTH CENTRAL ILLINOIS

CITY           SKY/WX    TMP DP  RH WIND       PRES   REMARKS
ROCKFORD       CLOUDY    47  25  42 S16       30.08F
FREEPORT*      CLOUDY    41  29  61 SE15      30.05F
ROCHELLE*      CLOUDY    44  29  55 SE20      30.07F
DE KALB*       CLOUDY    47  26  44 S20       30.09F
PERU*          CLOUDY    44  30  57 SE18      30.07F
$$

ILZ005-006-012>014-019>023-240000-
NORTHEAST ILLINOIS

CITY           SKY/WX    TMP DP  RH WIND       PRES   REMARKS
CHICAGO-OHARE  CLOUDY    50  25  37 S14       30.11F
CHICAGO-MIDWAY CLOUDY    50  25  37 S15G24    30.12F
AURORA         CLOUDY    49  26  41 S15G24    30.09F
LANSING*       CLOUDY    49  30  48 SE15G23   30.13F
JOLIET*        RAIN      50  27  40 S12       30.12F
WAUKEGAN       CLOUDY    42  29  59 SE8       30.10F
DUPAGE AIRPORT CLOUDY    49  26  41 S15       30.09F
KANKAKEE*      CLOUDY    49  28  43 SE8       30.14F
WHEELING       CLOUDY    48  26  42 S15       30.12F
MORRIS*        RAIN      45  31  60 S14G21    30.10S
ROMEOVILLE*    CLOUDY    48  31  51 S13G18    30.12S
NORTHERLY ISL    N/A     44  30  58 SE9         N/A
$$

LMZ740>746-240000-
SOUTHERN LAKE MICHIGAN

STATION/POSITION SKY/WX   TEMP    WIND        PRES    VSBY  WAVE
                          AIR SEA DIR/SP/G                  HT/PER
                          (F)     (DEG/KT/KT) (MB)    (MI)  (FT/S)
HARRISON CRIB              43     150/ 16/ 17   N/A
BURNHAM HARBOR             46     130/  6/ 12   N/A
CALUMET HARBOR             48     140/ 11/ 17 1019.7F
BURNS HARBOR               48     140/ 10/ 20 1021.3F
MICHIGAN CITY              47     140/ 16/ 19   N/A
$$

ILZ025>027-034>036-040-047-049-050-058-095>099-240000-
WEST-CENTRAL ILLINOIS

CITY           SKY/WX    TMP DP  RH WIND       PRES   REMARKS
QUINCY         SUNNY     55  40  56 SE18      29.95F
GALESBURG*     SUNNY     45  37  74 SE10G18   29.99S
MACOMB*        SUNNY     48  41  78 SE21      30.01F
JACKSONVILLE*  SUNNY     51  41  70 SE14G23   30.02F
PITTSFIELD*    SUNNY     55  42  59 SE16      30.00F
$$

ILZ028>032-037-038-041>044-048-051>054-059>061-240000-
CENTRAL ILLINOIS

CITY           SKY/WX    TMP DP  RH WIND       PRES   REMARKS
PONTIAC        CLOUDY    46  32  57 SE15      30.11F
BLOOMINGTON    SUNNY     47  33  58 SE21      30.08F
DECATUR        CLOUDY    47  37  68 SE15      30.12F
PEORIA         SUNNY     46  37  71 SE16G22   30.04F
LACON*         CLOUDY    46  34  64 SE13      30.04F
LINCOLN*       MOSUNNY   48  40  74 SE18      30.07F
SPRINGFIELD    SUNNY     48  40  73 SE15G25   30.07F
TAYLORVILLE    MOSUNNY   46  39  76 SE14G24   30.09F
$$

ILZ033-039-045-046-055>057-062-063-240000-
EAST-CENTRAL ILLINOIS

CITY           SKY/WX    TMP DP  RH WIND       PRES   REMARKS
CHAMPAIGN      CLOUDY    47  29  49 SE15      30.14F
RANTOUL*       CLOUDY    50  32  49 SE14      30.14F
MATTOON        CLOUDY    47  33  58 SE15      30.13F
PARIS*         CLOUDY    48  32  53 SE14      30.18F
$$

ILZ079-100>102-240000-
SOUTHWEST ILLINOIS

CITY           SKY/WX    TMP DP  RH WIND       PRES   REMARKS
ALTON          SUNNY     55  43  62 SE14      30.06F
CAHOKIA*       SUNNY     61  43  51 SE15      30.04F
SPARTA*        SUNNY     59  45  59 SE9G16    30.09F
$$

ILZ064>066-069>071-074>076-080>082-084>086-088>090-092>094-240000-
SOUTH-CENTRAL ILLINOIS

CITY           SKY/WX    TMP DP  RH WIND       PRES   REMARKS
CARBONDALE     SUNNY     61  44  53 SE13      30.11F
CAIRO*         SUNNY     66  44  44 SE8       30.13F
EFFINGHAM*     SUNNY     50  40  68 SE17      30.16F
MARION         MOSUNNY   63  43  48 SE9       30.14F
MT. VERNON     SUNNY     55  42  61 SE9       30.14F
CENTRALIA*     MOSUNNY   57  43  59 SE13      30.10F
SALEM*         MOSUNNY   55  42  63 SE12G17   30.13F
METROPOLIS*    SUNNY     58  44  61 E7        30.16F
$$

ILZ067-068-072-073-078-083-087-091-240000-
SOUTHEAST ILLINOIS

CITY           SKY/WX    TMP DP  RH WIND       PRES   REMARKS
LAWRENCEVILLE  MOSUNNY   52  35  52 SE13      30.21F
FLORA*         SUNNY     53  42  67 SE12      30.17F
FAIRFIELD*     SUNNY     53  41  63 SE10      30.16F
HARRISBURG*    SUNNY     55  46  73 E10       30.17F
ROBINSON*      CLOUDY    49  33  53 SE9       30.21S
CARMI*         SUNNY     52  42  67 SE10      30.18F
$$

ABBREVIATIONS USED IN REMARKS
   TC - TEMPERATURE IN CELSIUS
  WCI - WIND CHILL INDEX
   HX - HEAT INDEX
  VSB - VISIBILITY
$$





USA.gov is the U.S. government's official web portal to all federal, state and local government web resources and services.